STARLINK-34531, 64750

Orbit data source: Space-Track

STARLINK-34531, 64750 is a payload satellite owned by SpaceX/Seattle (US) in LEO that was launched on Wed, 02 Jul 2025 UTC via an FALCON 9 launch vehicle from the Air Force Eastern Test Range (AFETR). Payload-class satellites include a variety of spacecraft equipped with specific instruments for various scientific and technological missions. These include communications satellites like Starlink; space stations such as the ISS; scientific satellites like the Hubble; Earth observation satellites from companies like Planet Labs, Umbra, and HawkEye 360; GPS; miniature CubeSats for education and research; and military/defense satellites.

Not visible in the next 10 days
Identifier
64750, 2025-144AC
Orbit
LEO
Last TLE update
15 hours ago
Origin
Manufacturer
SpaceX/Seattle
Mission
Operational spacecraft
Bus & Motor
STARLINK V2MO, Unknown motor
Mass
575 kg wet, ~530 kg dry
Launch date (UTC)
2025-07-02 (1 week ago)
Launch vehicle
FALCON 9
Launch site
Air Force Eastern Test Range (AFETR)
Object type
Payload
Rocket body
Debris
Shape & HBR
Unknown
Radar Cross Section
RCS unknown

Expand to show TLE details & history

TLE from 15 hours ago
0 STARLINK-34531
1 64750U 25144AC  25191.66668981 -.01295732  00000-0 -51232-2 0  9992
2 64750  53.1535 231.6706 0000903  74.0742  45.1407 15.88599639  2575
Epoch: 2025-07-10T16:00Z
TLE epoch observation values (Epoch: 2025-07-10T16:00:01.999Z)
Latitude
44.4421°
Longitude
-164.11732°
Altitude
310.324 km
Speed
7.728 km/s
True Right ascension
00h 18m 52s
True Declination
44° 15' 31"
Sunlit
Object was in daylight at epoch
Visualization orbit readout
Latitude
24.97119°
Longitude
80.02614°
Altitude
311.651 km
Speed
7.725 km/s
Apparent Right ascension
13h 00m 07s
Apparent Declination
-19° 15' 41"
Sunlit
Object is in full shadow
Visualization observer readout
Local Sidereal Time
19:01:42
Azimuth
255.233° W
Elevation
-12.513°
Doppler factor
1
Orbital elements
Apogee altitude
307.076 km
Perigee altitude
305.868 km
Semi-major axis
6,684.609 km
Eccentricity
0.00009
Inclination
53.1535°
RAAN
231.6706°
Arg. of periapsis
74.0742°
True anomaly
Unknown
Mean anomaly
45.1407°
Eccentric anomaly
Unknown
Mean motion
3.97127 °/min
Orbital period
90.65 mins
BSTAR
-0.0051232
Loading maneuver chart data...
Loading SW <> Apogee altitude chart data...
Loading historical data...
Loading historical data...
Loading historical data...
Loading historical data...
Loading historical data...
Loading historical data...
Loading historical data...

STARLINK-34531 Visibility

Observer location: undefined°, undefined°

STARLINK-34531 is likely not visible in the next few days
Span
Click to sort rows by Start time (UTC) header in descending order
Start Az.
Max El. time (UTC)
Max El. Az.
Max El.
End time (UTC)
End Az.
|